Wetbulb
52.06 51.44 49.84 50.47 51.19 52.63 54.11 52.94 51.06 53.07 55.59 53.92 52.26 52.24 53.73 55.40 55.69 53.32 54.04 54.58 55.50 56.20 57.36 57.41 56.44 56.60 56.57 56.76 56.47 57.20 57.63 59.45 59.09 58.34 57.18 57.06 56.67 59.11 59.95 60.80 59.22 59.64 59.23 59.48
51.70 48.47 49.67 52.06 56.12 55.23 54.65 52.27 50.76 53.34 55.10 53.57 51.36 50.34 53.45 54.93 54.60 55.62 54.69 54.92 55.77 56.22 55.89 56.77 56.99 57.56 58.14 58.30 58.35 58.25 57.70 58.55 58.55 57.85 57.98 58.30 57.51 58.18 58.73 59.52 59.40 59.65 58.67 58.50
50.34 50.20 51.33 51.49 51.31 50.80 50.07 50.49 50.01 50.50 52.36 54.22 52.26 48.75 51.48 53.63 53.35 54.49 54.83 55.90 56.12 55.62 55.69 56.27 55.52 56.37 56.32 57.31 57.10 57.93 58.30 58.15 58.32 57.68 57.28 56.78 57.15 56.39 56.15 55.56 56.16 56.98 57.21 57.52
51.74 52.57 51.28 50.97 49.21 49.64 47.67 50.86 52.39 51.15 49.93 45.81 51.87 44.08 49.32 52.59 50.73 52.59 53.78 54.36 54.63 55.81 56.33 56.14 56.11 55.61 56.35 56.78 57.90 58.11 58.23 58.17 56.67 56.67 55.43 55.47 53.63 52.36 54.04 54.46 55.36 56.24 57.18 57.02
50.42 52.02 51.31 50.32 49.64 50.78 48.82 54.75 53.50 52.58 48.46 48.80 47.51 45.72 47.64 51.83 49.29 51.60 53.04 53.92 55.23 54.73 53.78 53.78 54.11 55.01 56.40 56.83 57.13 58.09 57.63 56.97 56.12 55.58 55.32 54.04 53.91 53.83 54.14 53.81 54.41 55.74 56.56 56.99
52.87 55.27 53.18 52.35 51.79 51.20 54.72 52.46 48.00 51.73 46.74 42.59 46.53 46.19 46.57 47.91 50.92 52.71 53.21 53.94 53.90 53.74 53.18 53.24 54.36 55.31 55.84 56.65 56.58 56.65 54.93 55.24 55.90 55.06 55.10 54.84 54.26 53.61 52.46 52.95 52.45 53.29 54.67 55.12
50.90 50.74 52.62 52.69 50.59 51.43 50.59 48.30 43.01 40.74 40.67 39.75 47.48 45.43 47.97 51.74 53.08 53.61 53.12 52.96 52.26 52.45 51.42 52.67 53.51 54.07 54.77 54.58 54.31 53.19 53.40 53.30 54.05 54.33 54.52 54.25 54.13 53.70 52.83 52.65 51.80 52.51 52.95 53.85
47.70 45.34 49.93 51.59 50.36 48.61 48.00 47.81 43.05 35.81 37.59 40.45 46.75 42.85 47.45 52.41 52.76 52.93 52.91 51.84 51.01 49.51 51.05 52.52 53.31 52.82 51.88 50.64 51.05 52.27 52.54 52.81 53.42 53.50 53.32 53.57 54.21 52.60 52.60 53.04 52.60 52.49 52.73 54.15
47.85 45.60 51.17 51.11 51.43 50.94 48.20 45.64 47.35 43.03 42.17 41.32 44.53 46.78 51.18 51.53 50.81 50.81 49.64 49.86 48.37 49.21 50.18 51.59 50.45 49.10 50.89 49.90 49.91 51.86 51.92 52.47 53.07 51.74 51.26 53.06 53.59 53.30 52.84 53.40 53.95 53.19 54.06 53.83
50.09 45.78 49.52 50.04 51.95 51.52 50.10 50.03 43.26 45.54 36.32 34.25 41.25 42.50 42.72 46.87 47.10 49.77 49.40 48.17 49.23 49.61 49.69 50.60 50.16 48.19 50.65 48.58 51.97 52.80 52.63 52.19 51.84 52.53 52.58 52.20 52.65 52.79 52.55 52.89 52.92 53.27 54.16 54.49
51.03 50.22 47.03 49.70 47.85 46.64 48.02 46.55 46.60 45.25 43.57 37.85 36.52 40.20 47.37 47.69 50.09 49.80 49.52 49.88 49.57 49.17 49.04 48.21 47.80 50.42 48.19 51.24 51.51 51.94 52.25 52.24 52.12 52.52 52.07 51.27 50.85 50.05 50.94 51.76 51.95 52.67 53.55 53.81
50.03 49.21 44.94 45.10 49.30 52.01 51.00 47.60 46.08 43.12 40.44 42.68 42.09 40.93 50.06 50.77 50.75 51.40 50.05 49.43 46.95 48.72 48.08 47.37 47.07 47.88 49.73 50.11 50.81 50.94 49.66 50.17 51.55 51.38 50.20 49.70 48.58 49.49 49.85 50.11 49.07 50.94 51.80 51.73
51.63 46.75 42.55 43.21 46.73 49.55 48.40 48.79 47.78 45.68 45.34 40.96 39.35 41.56 50.06 51.72 51.16 51.79 49.53 47.39 46.61 47.06 45.90 47.24 47.79 48.48 49.19 49.67 50.21 48.88 48.82 48.63 49.19 49.03 47.96 47.58 48.36 48.43 48.71 47.70 48.60 47.75 48.70 49.45
54.62 48.11 44.48 40.35 42.45 46.24 45.20 45.62 47.82 45.90 42.39 42.25 42.32 43.03 46.84 48.42 49.21 48.51 47.09 45.88 47.12 46.91 46.52 46.94 47.89 48.64 49.39 49.55 48.69 48.64 49.16 49.19 49.03 47.93 47.11 47.55 47.75 48.11 48.13 47.90 48.09 48.53 47.17 46.55
53.03 46.11 47.43 47.92 48.09 47.86 45.73 45.05 45.60 44.04 44.84 40.97 42.68 42.22 46.08 46.57 47.02 46.96 46.67 46.52 44.73 45.30 45.58 47.01 47.61 48.62 49.07 48.08 49.04 49.25 49.77 49.30 47.69 46.90 47.93 47.57 47.45 47.70 46.90 48.03 46.88 47.41 48.25 47.45
51.00 46.78 47.72 45.22 47.57 46.35 44.28 45.62 45.66 45.38 44.90 44.01 43.88 43.54 46.34 46.67 46.86 45.81 44.54 44.17 44.81 44.51 45.87 47.09 47.49 47.32 46.51 47.19 47.43 47.39 46.96 47.11 48.02 48.07 47.36 47.32 47.63 46.96 47.10 46.80 47.63 47.03 46.75 47.21
49.63 48.40 45.36 41.97 45.97 45.34 42.00 45.48 45.54 45.33 45.88 45.18 42.53 45.54 46.95 44.89 44.32 43.22 43.69 44.80 44.33 45.31 46.10 46.29 46.47 46.62 45.39 45.87 47.00 46.21 46.87 48.48 48.64 48.58 47.71 47.72 47.90 46.21 46.50 48.15 48.55 48.19 47.55 49.26
49.45 47.93 46.36 43.12 44.01 35.98 46.02 51.07 49.64 47.17 46.64 46.40 46.40 46.83 47.17 46.29 45.29 45.14 46.23 45.49 45.34 45.88 45.89 45.69 46.75 45.32 46.26 46.53 46.53 47.56 48.29 48.66 48.63 47.48 47.40 48.15 48.51 46.18 46.43 47.31 47.12 47.62 47.92 47.32
52.29 48.91 43.70 42.47 41.55 43.21 45.83 48.42 47.05 45.66 45.66 48.01 46.45 46.36 45.45 45.62 45.70 44.46 46.83 47.23 46.57 46.79 45.47 46.42 45.92 46.43 46.65 46.85 47.34 48.03 48.06 47.42 47.15 46.48 47.23 48.03 48.82 46.42 47.69 46.11 46.17 46.82 47.45 47.36
50.82 50.33 47.20 43.60 37.74 35.28 45.52 49.57 51.35 50.13 42.43 47.19 47.27 46.77 45.35 45.45 41.70 43.09 47.00 47.05 47.20 46.83 46.85 46.05 46.75 47.17 47.99 48.15 49.30 47.43 46.21 46.49 45.98 46.69 47.20 48.17 47.94 48.39 48.23 46.89 46.28 47.17 47.96 47.86
47.19 46.51 43.17 42.56 41.38 44.07 49.18 50.56 50.63 39.31 41.36 47.62 47.86 47.51 46.40 45.02 45.64 46.78 47.87 47.46 47.67 47.08 46.59 46.97 47.45 46.71 48.36 48.97 47.42 46.36 46.60 46.25 47.59 48.17 48.21 48.47 48.97 47.66 48.00 47.78 46.69 47.85 49.39 49.67
45.46 44.12 43.88 43.11 40.27 36.53 50.17 49.37 44.72 47.94 48.40 48.40 47.77 47.85 47.09 46.64 46.69 47.13 47.29 46.88 46.07 45.14 46.33 47.53 47.28 46.85 48.19 47.75 47.07 46.21 46.36 48.38 48.87 49.49 48.69 48.97 49.43 48.42 47.82 47.72 48.77 50.92 50.55 50.86
45.74 47.86 46.30 45.97 45.83 49.31 50.95 50.71 50.76 50.12 49.64 48.21 48.35 47.65 47.77 46.98 46.55 46.84 47.05 45.40 45.10 45.73 47.10 47.83 46.43 47.82 48.28 48.76 48.01 46.20 47.19 48.78 48.55 49.09 49.29 48.94 49.43 48.15 48.24 50.00 50.89 51.31 51.00 49.10
49.29 50.21 49.67 47.88 48.76 49.55 49.43 49.65 50.08 50.32 49.77 49.02 49.11 48.32 48.09 47.14 47.10 46.96 45.61 45.55 45.79 46.67 46.47 47.51 46.82 48.15 48.78 48.74 48.66 48.28 48.67 49.24 48.84 50.13 50.54 49.31 49.92 49.82 49.50 51.75 49.47 50.30 51.32 50.56
50.19 50.91 48.06 48.26 50.11 50.02 48.84 49.50 50.00 49.37 49.44 48.74 48.79 48.45 48.09 47.79 47.09 46.71 46.49 45.91 47.17 46.68 48.01 47.18 46.95 48.22 48.57 49.48 48.94 50.49 50.74 49.72 50.89 50.76 51.35 51.99 52.47 52.69 51.61 52.44 50.36 52.06 52.49 47.83
51.45 49.76 49.59 47.42 51.76 51.51 50.02 50.68 50.25 49.25 48.60 48.99 48.30 47.47 48.20 48.18 47.81 47.44 45.55 46.73 47.14 46.19 46.91 46.59 47.94 49.09 48.77 49.93 49.45 49.59 51.69 51.87 52.11 51.55 51.15 49.47 49.82 52.71 53.25 53.55 53.94 42.15 41.12 40.98
MSLP
1009.78 1009.48 1009.98 1010.50 1010.60 1011.53 1012.95 1014.52 1016.27 1017.96 1018.81 1019.06 1020.14 1021.04 1021.70 1022.18 1022.29 1022.92 1023.45 1023.81 1023.99 1024.25 1024.69 1024.83 1025.03 1025.03 1025.34 1025.53 1025.48 1025.28 1024.85 1024.96 1024.69 1024.50 1024.11 1024.02 1023.87 1023.79 1023.69 1023.66 1023.43 1023.08 1022.57 1022.00
1009.90 1010.34 1011.10 1011.17 1011.59 1012.21 1013.43 1014.84 1016.81 1018.35 1019.05 1019.58 1020.64 1021.33 1021.85 1022.26 1022.76 1023.08 1023.64 1024.00 1024.16 1024.41 1024.58 1024.78 1024.91 1025.07 1025.31 1025.39 1025.46 1025.41 1025.40 1025.21 1024.87 1024.85 1024.70 1024.47 1024.02 1023.63 1023.28 1023.22 1022.94 1022.82 1022.42 1022.11
1009.69 1011.23 1011.54 1011.54 1012.23 1012.51 1013.72 1014.46 1016.30 1017.39 1019.00 1019.73 1020.20 1021.12 1021.62 1022.51 1023.22 1023.68 1023.98 1024.23 1024.41 1024.52 1024.65 1024.76 1024.94 1025.41 1025.60 1025.57 1025.68 1025.56 1025.48 1025.38 1025.22 1025.11 1024.76 1024.49 1024.18 1023.74 1023.29 1023.11 1022.82 1022.70 1022.61 1022.19
1010.76 1011.37 1011.38 1011.62 1012.09 1012.72 1013.35 1014.37 1015.60 1016.83 1017.53 1018.50 1019.56 1019.71 1020.91 1021.57 1022.59 1023.29 1023.66 1023.97 1024.26 1024.55 1024.74 1024.92 1025.26 1025.48 1025.75 1025.79 1025.84 1025.91 1025.74 1025.55 1025.28 1025.10 1024.77 1024.52 1024.07 1023.75 1023.40 1023.20 1022.89 1022.50 1022.40 1022.12
1011.38 1011.48 1011.63 1011.80 1012.39 1012.63 1014.04 1014.79 1015.47 1016.45 1017.07 1017.76 1019.24 1019.46 1019.94 1020.99 1021.75 1022.43 1023.26 1023.90 1024.38 1024.81 1025.12 1025.26 1025.58 1025.69 1025.75 1025.72 1025.77 1025.82 1025.76 1025.61 1025.42 1025.26 1025.04 1024.63 1024.29 1024.06 1023.78 1023.35 1022.98 1022.56 1022.13 1021.99
1011.65 1011.98 1012.17 1012.32 1012.79 1013.13 1014.23 1015.10 1015.88 1016.55 1016.72 1017.00 1018.30 1018.99 1019.21 1020.54 1020.90 1021.82 1023.27 1023.90 1024.60 1025.07 1025.50 1025.98 1025.84 1025.74 1025.66 1025.67 1025.72 1025.71 1025.70 1025.56 1025.45 1025.23 1024.93 1024.72 1024.47 1024.21 1023.77 1023.44 1022.96 1022.45 1022.07 1021.73
1012.30 1012.70 1012.83 1012.96 1012.83 1013.55 1014.10 1014.46 1014.92 1015.44 1015.84 1016.80 1018.28 1018.84 1018.70 1020.15 1021.38 1021.96 1023.17 1024.27 1025.12 1025.47 1025.83 1026.03 1025.82 1025.57 1025.62 1025.78 1025.86 1025.79 1025.69 1025.48 1025.33 1025.05 1024.76 1024.62 1024.49 1024.24 1023.83 1023.52 1022.96 1022.76 1022.14 1021.79
1013.00 1013.48 1013.68 1013.87 1014.02 1014.12 1014.44 1014.83 1015.13 1015.38 1016.09 1016.94 1018.30 1018.26 1020.25 1021.60 1022.60 1023.20 1024.02 1024.93 1025.60 1025.96 1025.95 1025.92 1025.86 1025.92 1025.99 1026.28 1026.19 1025.95 1025.70 1025.46 1025.27 1025.06 1024.87 1024.65 1024.52 1024.24 1023.91 1023.59 1023.27 1022.71 1022.38 1022.02
1013.85 1014.48 1014.81 1014.77 1014.75 1014.97 1014.95 1015.44 1016.40 1016.43 1017.31 1017.47 1018.37 1019.20 1021.10 1022.59 1023.35 1024.00 1024.81 1025.38 1026.00 1026.31 1025.99 1025.98 1026.36 1026.54 1026.48 1026.59 1026.41 1026.19 1025.91 1025.61 1025.36 1025.34 1025.18 1024.84 1024.67 1024.45 1024.17 1023.93 1023.62 1023.09 1022.63 1022.12
1014.75 1015.00 1015.48 1015.49 1015.43 1015.65 1015.63 1016.65 1016.77 1016.96 1017.20 1017.64 1018.76 1020.01 1021.92 1022.82 1023.59 1024.27 1024.96 1025.57 1025.91 1026.17 1026.23 1026.42 1026.68 1026.65 1026.48 1026.79 1026.48 1026.31 1026.14 1025.84 1025.68 1025.48 1025.28 1025.09 1024.93 1024.74 1024.50 1024.18 1023.74 1023.28 1022.75 1022.33
1015.26 1015.44 1016.34 1016.29 1016.86 1016.91 1016.78 1017.12 1017.82 1018.42 1018.81 1018.81 1019.49 1021.52 1023.31 1023.61 1023.79 1024.36 1025.04 1025.51 1025.89 1026.23 1026.51 1026.82 1026.91 1027.16 1027.18 1026.69 1026.47 1026.24 1026.02 1025.75 1025.57 1025.49 1025.54 1025.41 1025.31 1025.12 1024.75 1024.38 1024.01 1023.43 1022.95 1022.47
1016.67 1016.79 1017.03 1017.61 1018.14 1018.27 1018.39 1018.77 1019.07 1018.89 1019.56 1020.37 1020.90 1022.52 1023.71 1023.98 1024.28 1024.54 1025.11 1025.84 1026.51 1026.73 1026.96 1027.20 1027.42 1027.34 1027.08 1026.85 1026.59 1026.47 1026.63 1026.32 1026.05 1026.04 1025.95 1025.86 1025.63 1025.32 1024.88 1024.45 1024.28 1023.67 1023.19 1023.02
1017.24 1018.01 1017.93 1018.20 1018.75 1018.80 1019.13 1019.68 1020.03 1020.30 1020.47 1020.98 1021.25 1022.60 1023.75 1024.21 1024.48 1024.95 1025.59 1026.36 1026.76 1027.05 1027.38 1027.47 1027.43 1027.32 1027.23 1027.11 1027.00 1027.04 1026.97 1026.85 1026.62 1026.45 1026.24 1026.07 1025.83 1025.40 1025.06 1024.88 1024.53 1024.21 1023.81 1023.55
1017.66 1018.80 1018.94 1019.20 1019.67 1020.11 1020.16 1020.51 1020.59 1020.54 1020.68 1021.59 1022.34 1022.89 1023.77 1024.44 1024.87 1025.69 1026.28 1026.74 1027.07 1027.42 1027.67 1027.74 1027.67 1027.59 1027.43 1027.58 1027.51 1027.35 1027.17 1027.05 1026.88 1026.69 1026.44 1026.22 1026.04 1025.72 1025.35 1025.06 1024.71 1024.37 1024.21 1023.92
1018.42 1019.44 1020.08 1020.45 1020.63 1020.77 1021.10 1021.21 1021.23 1021.28 1021.92 1022.04 1022.76 1023.23 1024.14 1025.12 1025.62 1026.27 1026.85 1027.23 1027.61 1027.78 1027.98 1028.04 1028.06 1027.96 1027.79 1027.95 1027.68 1027.53 1027.26 1027.20 1027.13 1026.83 1026.36 1026.42 1026.34 1025.94 1025.61 1025.17 1024.91 1024.51 1024.11 1024.09
1019.50 1020.29 1020.62 1021.01 1021.31 1021.41 1021.50 1021.66 1021.74 1021.98 1022.32 1022.69 1023.17 1023.73 1024.94 1025.75 1026.31 1026.74 1027.26 1027.62 1027.81 1028.13 1028.37 1028.51 1028.55 1028.48 1028.47 1028.41 1028.36 1028.17 1027.88 1027.64 1027.25 1026.69 1026.75 1026.73 1026.34 1025.97 1025.63 1025.36 1025.09 1024.88 1024.64 1024.35
1019.79 1020.47 1020.91 1021.24 1021.72 1021.74 1021.76 1021.95 1022.03 1022.32 1022.66 1023.06 1023.22 1024.21 1025.18 1025.98 1026.63 1027.23 1027.71 1027.92 1028.25 1028.58 1028.84 1028.96 1029.01 1029.03 1029.18 1029.09 1028.90 1028.57 1028.22 1027.77 1027.30 1026.99 1027.14 1026.80 1026.35 1026.21 1025.89 1025.51 1025.14 1024.93 1024.84 1024.44
1020.09 1020.69 1021.34 1021.72 1021.99 1021.86 1022.10 1022.24 1022.28 1022.38 1022.72 1023.39 1023.95 1024.62 1025.40 1026.16 1027.13 1027.70 1027.97 1028.26 1028.61 1028.98 1029.26 1029.49 1029.48 1029.62 1029.58 1029.43 1029.16 1028.77 1028.29 1027.93 1027.55 1027.48 1027.33 1027.02 1026.58 1026.50 1026.22 1025.86 1025.59 1025.32 1025.08 1024.87
1020.12 1020.68 1021.53 1022.08 1022.04 1022.30 1022.14 1022.28 1022.46 1022.53 1022.90 1023.87 1024.29 1025.20 1026.01 1026.77 1027.30 1027.89 1028.41 1028.80 1029.13 1029.50 1029.89 1029.87 1030.06 1029.99 1029.82 1029.58 1029.32 1028.81 1028.50 1028.32 1028.09 1027.76 1027.58 1027.43 1026.96 1026.77 1026.38 1026.23 1025.95 1025.66 1025.34 1025.09
1020.54 1020.84 1021.17 1022.10 1022.00 1021.99 1022.21 1022.41 1022.56 1022.78 1023.42 1024.41 1024.81 1025.40 1026.13 1026.80 1026.68 1027.56 1028.59 1029.09 1029.49 1029.93 1030.10 1030.21 1030.15 1030.04 1029.72 1029.58 1029.26 1029.15 1028.95 1028.62 1028.44 1028.22 1027.96 1027.71 1027.40 1027.00 1026.57 1026.47 1026.29 1025.92 1025.57 1025.35
1020.71 1021.24 1021.64 1022.18 1022.20 1022.43 1022.61 1022.72 1022.80 1023.15 1024.74 1024.79 1025.21 1025.70 1026.42 1026.79 1027.57 1028.28 1028.88 1029.31 1029.78 1030.03 1030.27 1030.30 1030.18 1030.06 1029.79 1029.69 1029.65 1029.39 1029.12 1028.90 1028.69 1028.39 1028.14 1027.84 1027.44 1027.17 1026.87 1026.68 1026.31 1025.93 1025.60 1025.35
1021.04 1021.45 1021.97 1022.52 1022.50 1022.87 1023.18 1023.03 1023.28 1024.22 1024.83 1025.24 1025.77 1026.23 1026.77 1027.46 1028.12 1028.62 1029.14 1029.58 1029.99 1030.25 1030.33 1030.32 1030.15 1030.13 1030.03 1030.06 1029.71 1029.45 1029.20 1029.07 1028.72 1028.31 1028.07 1027.85 1027.53 1027.18 1027.01 1026.82 1026.49 1026.05 1025.71 1025.25
1021.63 1022.06 1022.17 1022.68 1022.94 1023.41 1023.70 1023.79 1024.29 1024.58 1024.84 1025.63 1026.05 1026.74 1027.20 1027.76 1028.27 1028.82 1029.28 1029.92 1030.22 1030.37 1030.39 1030.38 1030.29 1030.09 1029.92 1030.01 1029.82 1029.53 1029.37 1029.06 1028.67 1028.36 1028.03 1027.84 1027.58 1027.38 1027.21 1026.84 1026.49 1025.94 1025.78 1025.64
1022.11 1022.44 1022.39 1022.88 1023.36 1023.55 1023.92 1024.41 1024.67 1025.01 1025.40 1026.05 1026.55 1027.13 1027.55 1027.96 1028.48 1029.02 1029.76 1030.08 1030.34 1030.46 1030.49 1030.42 1030.33 1029.97 1029.79 1029.97 1029.88 1029.72 1029.37 1029.05 1028.73 1028.25 1027.99 1028.00 1027.69 1027.53 1027.46 1027.02 1027.06 1026.67 1026.18 1025.88
1022.47 1022.63 1022.84 1022.92 1023.27 1023.79 1024.14 1024.51 1024.99 1025.50 1025.98 1026.50 1027.03 1027.46 1027.87 1028.24 1028.74 1029.39 1029.81 1030.15 1030.36 1030.58 1030.49 1030.57 1030.45 1030.21 1030.11 1030.05 1029.92 1029.61 1029.33 1029.17 1028.72 1028.52 1028.17 1027.80 1027.57 1027.25 1027.22 1027.21 1027.42 1027.22 1027.21 1027.40
1022.79 1022.87 1022.94 1022.87 1023.07 1023.48 1023.96 1024.67 1025.38 1025.70 1026.24 1026.74 1027.19 1027.77 1028.26 1028.57 1029.03 1029.58 1030.03 1030.27 1030.40 1030.69 1030.73 1030.72 1030.51 1030.29 1030.27 1030.11 1030.00 1029.83 1029.57 1029.31 1029.01 1028.68 1028.39 1028.39 1028.03 1027.36 1027.30 1027.19 1027.08 1028.19 1028.30 1028.06
Wind_Speed
4 4 8 7 9 11 14 13 15 10 3 11 12 11 9 8 11 10 8 7 7 9 9 10 10 10 8 7 6 7 9 10 9 7 7 6 6 3 3 3 3 4 5 5
6 8 3 11 14 17 16 17 8 9 8 8 10 9 6 6 7 7 8 6 6 7 8 8 10 11 11 11 10 11 9 9 9 7 6 4 6 4 6 5 7 6 9 8
10 4 3 10 10 11 4 5 10 8 12 12 13 5 7 5 6 6 5 6 6 6 5 8 10 9 8 9 9 10 10 10 8 8 5 5 4 5 4 7 7 8 8 8
9 2 4 5 4 1 3 1 15 19 8 5 9 2 8 8 7 5 4 5 5 5 5 7 7 7 7 7 7 7 7 7 7 8 7 9 7 7 7 7 7 8 7 7
4 2 4 7 4 1 5 10 14 14 3 7 9 5 3 7 10 10 7 6 5 6 5 6 5 6 7 7 8 6 7 7 7 7 7 6 8 6 6 7 10 8 7 7
5 1 4 4 5 8 15 8 4 6 3 4 4 5 7 7 12 8 6 5 4 5 6 5 5 6 7 7 7 6 8 8 8 8 8 8 8 9 9 10 8 8 7 7
4 6 3 5 2 5 6 1 4 5 4 5 1 7 5 10 2 2 7 5 4 5 4 4 6 6 6 7 7 7 7 8 9 9 10 10 9 9 10 10 9 11 8 7
2 3 6 9 4 3 5 3 4 6 5 5 2 3 7 10 10 10 6 5 3 2 3 5 5 6 4 4 6 7 8 10 10 10 11 9 8 7 8 9 9 8 7 8
3 5 2 7 8 4 2 4 3 3 2 4 2 0 10 7 6 6 6 5 1 6 5 5 3 3 6 6 6 8 9 11 10 9 9 10 8 9 9 10 9 7 7 6
2 5 3 3 3 10 6 3 3 1 5 9 1 2 6 11 1 4 4 4 7 4 2 1 2 2 3 4 7 7 8 9 9 9 8 8 8 8 8 8 9 9 8 9
2 3 3 1 6 7 6 4 4 1 4 4 5 5 4 7 3 3 4 5 2 2 5 4 5 7 5 6 7 8 9 10 10 10 9 9 9 9 8 7 8 9 9 7
4 3 3 3 1 6 8 5 4 4 3 3 2 4 4 3 5 4 4 6 8 6 5 5 4 6 7 8 9 10 9 10 10 9 8 9 6 6 8 8 8 9 7 7
2 4 2 4 5 3 6 7 3 2 2 5 5 4 4 3 3 6 6 8 6 6 4 5 7 8 8 9 10 9 8 9 8 7 8 8 10 10 11 10 7 6 8 8
5 4 4 3 3 2 3 9 7 4 4 3 4 3 3 2 4 5 6 6 7 7 7 8 9 9 9 10 9 9 9 7 7 7 7 8 10 10 9 8 8 7 4 6
4 4 4 6 6 7 5 6 10 10 5 4 3 4 3 5 4 6 6 6 5 6 8 9 10 10 11 11 11 11 8 8 6 6 8 10 8 8 7 9 8 8 6 3
3 4 2 3 5 5 6 4 4 5 2 1 2 3 4 6 7 6 6 5 5 7 8 9 10 11 10 11 10 10 9 7 8 9 11 8 9 8 9 6 8 7 7 8
3 5 2 3 4 4 2 4 3 2 2 3 6 4 7 5 5 5 5 5 6 7 8 8 8 9 8 8 8 7 7 7 8 9 10 10 10 9 9 9 7 7 7 6
5 4 2 2 2 1 3 2 5 5 4 2 0 2 2 4 5 4 4 4 5 6 7 7 8 7 8 8 7 6 7 8 9 10 10 10 9 7 8 9 9 9 7 7
4 4 4 1 0 2 3 1 3 4 6 4 1 4 6 8 6 5 4 5 5 6 4 5 5 5 6 7 6 7 8 8 9 10 10 10 10 8 10 9 8 6 6 5
7 7 2 2 1 2 1 2 4 3 1 4 2 3 6 6 4 5 4 4 5 5 4 5 5 5 6 7 7 7 8 9 9 9 9 8 8 9 9 7 7 6 5 5
2 3 4 1 1 1 1 4 1 4 4 3 2 2 6 1 4 7 5 4 5 4 4 4 5 6 7 7 5 6 7 9 8 7 6 7 8 7 7 7 5 5 6 6
1 1 1 1 1 1 3 2 3 4 3 3 4 4 5 7 7 6 4 4 4 4 3 5 5 5 6 5 4 6 8 8 7 7 5 6 7 6 6 7 6 7 7 8
1 2 2 3 2 3 3 3 4 3 5 4 6 6 8 8 6 4 4 3 4 3 4 4 4 4 5 6 5 6 8 8 7 6 7 7 7 7 8 8 7 6 6 6
2 1 0 2 2 0 3 4 3 3 8 7 8 8 5 6 5 4 4 3 2 3 3 4 3 5 6 6 6 5 7 7 6 8 9 7 7 6 6 5 4 6 8 7
2 3 2 1 2 2 4 3 6 8 9 10 7 6 5 5 4 4 4 3 4 4 4 3 3 4 5 6 6 7 8 6 8 8 7 8 7 7 7 5 4 6 6 7
2 2 1 3 3 3 2 8 9 10 10 8 7 6 5 3 5 5 4 4 4 3 4 2 3 4 5 5 6 7 7 7 7 7 6 5 3 5 4 5 6 4 5 7
Wind_Direction
37 124 84 77 84 103 102 108 114 112 89 77 111 120 128 117 108 98 97 91 66 63 63 62 62 65 66 59 56 45 55 35 23 16 14 13 10 351 337 291 280 287 321 337
114 76 27 102 108 107 116 118 110 96 88 110 129 110 124 127 109 121 124 106 93 70 46 47 53 47 37 36 34 33 28 18 17 9 355 336 329 325 342 346 344 346 337 326
81 78 125 111 122 120 157 136 170 136 112 125 138 139 172 129 124 104 88 110 88 75 63 44 38 33 25 25 17 9 7 2 7 1 356 354 351 342 341 350 337 340 323 323
74 65 81 100 99 265 114 24 148 147 167 171 211 174 220 192 193 162 173 152 126 95 71 51 31 28 13 11 6 354 347 355 3 3 0 357 351 345 343 337 330 328 341 336
99 71 62 58 13 226 57 142 151 159 142 157 198 253 133 197 225 211 190 185 112 81 75 63 26 6 351 350 345 330 346 3 358 350 350 343 341 339 332 334 336 335 332 339
84 23 31 354 59 65 134 121 99 195 203 252 167 255 181 192 236 212 177 122 110 86 63 19 8 0 354 353 351 359 359 350 349 340 339 343 338 339 336 342 337 344 336 337
71 30 3 17 37 114 191 163 303 267 261 344 157 217 30 194 22 180 154 124 109 101 70 328 336 347 345 342 354 346 355 342 338 335 339 346 337 333 330 336 336 328 337 338
165 170 13 347 20 341 40 345 335 314 317 344 180 278 59 76 82 77 98 106 130 124 234 261 309 334 6 359 348 342 344 339 335 336 334 335 334 336 331 338 333 327 326 328
147 128 148 35 36 314 68 25 2 296 109 259 26 194 97 77 75 97 111 120 162 237 231 254 342 43 326 353 338 346 340 327 326 336 325 333 340 338 342 343 337 332 326 325
82 133 25 30 347 47 43 62 285 4 296 309 159 350 18 357 201 157 149 206 221 229 266 306 100 7 12 333 347 338 331 329 330 327 341 349 353 351 344 342 344 337 332 338
36 8 80 84 33 17 32 39 40 48 328 311 315 75 7 350 34 166 197 209 218 59 71 66 55 342 356 352 346 340 344 342 346 356 2 1 360 350 344 344 342 344 332 349
26 67 69 92 46 54 60 34 14 324 71 54 319 87 2 20 67 105 95 80 74 82 65 52 8 0 356 349 352 0 352 353 358 6 8 9 349 342 343 346 358 346 357 28
149 38 338 149 198 80 43 17 33 83 238 43 340 62 47 106 103 47 92 94 91 74 66 14 3 352 348 348 360 359 360 1 2 12 7 359 1 350 359 351 14 33 1 17
89 66 29 10 14 351 48 27 29 24 36 54 44 352 75 63 15 85 93 94 87 64 35 11 2 0 2 7 359 357 360 6 16 8 357 6 10 4 5 1 7 9 15 10
66 94 92 75 81 89 82 50 46 59 48 30 18 339 46 22 50 101 99 89 70 42 19 18 11 5 10 2 1 1 5 27 15 356 7 19 357 1 355 5 5 8 20 26
31 112 113 88 93 86 74 45 50 57 56 116 283 315 81 106 109 106 97 84 39 29 21 16 12 7 7 8 10 14 16 14 6 11 23 7 3 355 353 357 6 21 19 16
53 138 177 106 149 312 226 11 6 318 260 315 327 31 158 148 130 132 108 59 39 23 18 16 10 10 4 5 6 6 4 4 15 16 19 5 11 357 3 14 27 23 22 25
122 101 47 92 198 248 77 304 303 290 291 232 292 102 161 128 102 106 75 51 39 28 26 16 12 1 2 5 8 4 8 16 16 17 14 8 14 9 8 22 18 18 11 17
64 120 99 267 205 344 181 153 326 307 351 9 357 120 123 131 142 113 72 62 47 38 29 21 10 0 12 23 11 16 21 19 22 10 13 16 14 19 22 20 11 3 6 15
76 68 79 151 333 38 66 15 343 194 124 36 359 155 164 172 283 78 112 91 66 61 40 20 3 9 14 20 25 36 29 23 23 10 7 12 12 14 24 17 9 2 13 20
52 32 51 88 357 179 311 326 263 334 14 51 32 121 157 175 41 109 123 91 72 55 48 23 26 28 27 38 29 33 25 13 344 338 354 6 13 14 17 22 6 13 37 43
59 96 69 151 291 6 21 216 332 72 117 107 90 99 132 115 122 119 105 78 72 72 48 25 35 31 33 27 15 15 16 356 350 352 356 9 11 18 27 32 28 37 37 49
146 355 360 251 21 22 359 33 95 103 116 106 110 108 123 124 129 118 114 91 84 70 47 36 46 39 49 32 8 3 355 355 355 17 41 31 42 45 51 58 49 44 42 30
95 166 31 249 124 210 111 114 101 98 99 107 112 120 120 116 127 103 94 100 81 58 50 48 38 29 38 25 16 7 357 12 36 56 63 63 59 52 55 59 36 25 19 13
28 181 103 291 214 205 176 177 128 109 113 114 103 100 109 125 109 94 92 93 87 82 60 32 18 23 31 19 18 18 29 37 63 66 71 66 55 40 40 40 18 16 43 3
184 143 265 43 6 5 79 155 141 134 129 129 124 117 120 114 106 107 89 75 91 101 80 27 2 13 24 26 38 32 40 53 60 68 63 44 4 360 53 23 65 62 31 56